Find Starlink 32868

NORAD ID: 62854 Int'l Des: 2025-022 Owner: SPXS Country: US Constellation: starlink operational
LEOCIRCULAR

現在のビュー

3D地球を読み込み中...

About Starlink 32868

Starlink 32868 (NORAD 62854) is a starlink constellation satellite (v2 mini) launched Feb 2, 2025 by SPXS of US. It operates in LEO, CIRCULAR orbit with a mass of 730.00 kg.

Starlink 32868について

説明を読み込み中...

次回通過

Passes for default location (London). Set your location on the main map for personalized predictions.

高度履歴

Loading altitude history...

軌道要素

1 62854U 25022A 26174.78470580 .00031979 00000-0 95326-3 0 9992
2 62854 53.1596 354.7005 0000942 97.6253 262.4856 15.34410022 78984
Epoch: Jun 23, 2026 • Age: 20 hours

現在のステータス

高度 466.8 km
速度 7.63 km/s
衛星直下点 -15.55°S, 53.23°E
打ち上げ日 Feb 2, 2025
運用期間 1.3 years
タイプ internet

技術仕様

分類 Payload
質量 730.00 kg
乾燥質量 700.00 kg
総質量 730.00 kg
長さ 0.30 m
直径 4.10 m
スパン 29.00 m
形状 Box + pan
製造者 SPXS
バスタイプ Starlink V2M
フェーズステータス In Orbit
所有者/国 SPXS/US

Most Searched